Regional Weather Roundup
Issued by NWS

Home | Current Version | Previous Version | Text Only | Print | Product List | Glossary On
Versions: 1 2 3 4 5 6 7 8 9 10 11 12 13 14 15 16 17 18 19 20 21 22 23 24 25 26 27 28 29 30 31 32 33 34 35 36 37 38 39 40 41 42 43 44 45 46 47 48 49 50
000
ASUS42 KFFC 251303
RWRGA
WEATHER ROUNDUP FOR GEORGIA
NATIONAL WEATHER SERVICE PEACHTREE CITY GA
900 AM EDT SAT APR 25 2015

NOTE: "FAIR" INDICATES FEW OR NO CLOUDS BELOW 12,000 FEET WITH NO
SIGNIFICANT WEATHER AND/OR OBSTRUCTIONS TO VISIBILITY.

* = USE WITH CAUTION. THE STATIONS MARKED WITH AN ASTERISK MAY NOT
REPORT WEATHER SUCH AS PRECIPITATION, FOG, OR THUNDER AND ARE NOT
QUALITY CONTROLLED BY NWS.

THE REMARK "TC" DENOTES TEMPERATURE READING IN DEGREES CELSIUS.

GAZ001>058-251400-
NORTH GEORGIA

CITY           SKY/WX    TMP DP  RH WIND       PRES   REMARKS
ATLANTA        LGT RAIN  60  57  89 SE9G16    29.85F FOG
ATHENS         RAIN      56  56 100 CALM      29.92F FOG
CHAMBLEE       LGT RAIN  58  58 100 SE8       29.82F FOG
PEACHTREE CITY CLOUDY    60  59  96 SE8       29.85F
ROME           CLOUDY    58  57  97 SW3       29.78F
WEST ATLANTA   CLOUDY    60  58  92 SE8       29.83F FOG
GAINESVILLE    LGT RAIN  55  54  96 E6        29.86F FOG
CARTERSVILLE   CLOUDY    58  56  93 E3        29.81F


CITY           SKY/WX    TMP DP  RH WIND       PRES   REMARKS
DALTON*        CLOUDY    57  57 100 SE6       29.77F
LAWRENCEVILLE* LGT RAIN  57  52  82 S7        29.84F FOG
MARIETTA       CLOUDY    59  59 100 SE9       29.81F FOG
BLAIRSVILLE*     N/A     57  49  73 SE6       29.82F
$$

GAZ059>098-102>109-251400-
CENTRAL GEORGIA

CITY           SKY/WX    TMP DP  RH WIND       PRES   REMARKS
AUGUSTA-BUSH   RAIN      57  55  93 N5        29.93R FOG
AUGUSTA-DANIEL HVY RAIN  58  54  86 CALM      29.94R FOG
COLUMBUS       HVY RAIN  63  61  94 E9        29.85R FOG
MACON          TSTM      61  60  97 VRB5      29.87R FOG
ROBINS AFB     HVY RAIN  62  60  92 N8        29.88R VSB 1


CITY           SKY/WX    TMP DP  RH WIND       PRES   REMARKS
LAGRANGE*      CLOUDY    64  64  98 CALM      29.85S
SYLVANIA*      CLOUDY    62  59  90 CALM      29.90F
MILLEDGEVILLE* TSTM      59  59 100 CALM      29.94R
$$

GAZ099>101-110>166-251400-
SOUTH GEORGIA

CITY           SKY/WX    TMP DP  RH WIND       PRES   REMARKS
SAVANNAH       CLOUDY    68  63  84 SE8       29.90F
VALDOSTA       CLOUDY    69  64  84 S12       29.89S
ALMA           LGT RAIN  65  62  90 S9        29.89F
ST SIMONS      CLOUDY    72  67  84 S8        29.92S
FT STEWART     DRIZZLE   65  62  91 SE5       29.88F
ALBANY         LGT RAIN  68  63  84 S9        29.87F
HUNTER AFB     CLOUDY    70  66  88 S7        29.89F
MOODY AFB      CLOUDY    66  62  88 S10       29.88S
BRUNSWICK      CLOUDY    72  64  78 SE5       29.93F


CITY           SKY/WX    TMP DP  RH WIND       PRES   REMARKS
BAINBRIDGE*    LGT RAIN  73  72  94 SW5       29.88S
MOULTRIE*      LGT RAIN  68  66  94 S6        29.90R
VIDALIA*       CLOUDY    63  61  94 S6        29.88F
WAYCROSS*      CLOUDY    70  67  89 S9        29.90F
DOUGLAS*       CLOUDY    64  61  88 S7        29.91R
$$


USA.gov is the U.S. government's official web portal to all federal, state and local government web resources and services.